Temperature
20 22 22 23 22 20 21 19 20 21 20 21 20 20 20 20 20 20 20 20 21 21 21 20 20 20 20 19 19 18 18 18 17 17 17 16 16 16 16 16 15 15 15 15
22 22 23 23 23 22 22 21 21 22 21 20 20 20 20 19 20 20 20 20 20 20 20 20 20 20 19 19 19 18 18 18 17 17 16 16 16 16 15 15 15 15 15 14
20 22 23 22 22 22 22 21 21 22 22 20 19 19 19 19 20 21 21 21 21 20 20 20 20 20 19 19 18 18 18 17 17 16 16 16 15 15 15 15 14 14 14 14
17 21 22 21 21 22 22 21 20 21 20 19 20 21 21 21 21 21 21 21 21 20 20 20 20 19 19 18 18 18 17 17 16 16 16 15 15 15 15 14 14 14 13 13
16 19 20 21 21 21 21 22 20 19 19 19 20 20 19 21 22 22 22 22 21 21 20 20 20 19 19 18 18 17 17 16 16 16 15 15 15 15 14 14 14 13 13 13
16 19 20 21 21 21 21 21 20 19 18 18 19 19 19 22 21 21 21 21 21 21 20 20 19 19 19 18 18 17 17 16 16 16 15 15 14 14 14 14 13 13 13 12
16 18 18 19 19 20 21 21 20 19 19 19 19 21 22 22 21 21 21 21 21 20 20 20 19 19 18 18 18 17 17 16 15 15 15 14 14 14 13 13 13 13 12 12
15 18 18 18 18 19 19 19 19 19 20 20 21 21 22 22 21 21 21 21 21 20 20 19 19 18 18 17 17 17 16 16 15 15 14 14 14 13 13 13 12 12 12 11
14 16 16 16 17 18 19 19 19 20 20 20 20 21 21 21 21 21 20 20 20 20 19 19 18 18 18 17 17 16 16 15 15 15 14 14 13 13 13 12 12 12 11 11
14 15 15 16 17 18 19 20 20 20 20 20 20 21 21 21 20 20 20 20 19 19 19 19 18 18 17 17 16 16 15 15 15 14 14 13 13 13 12 12 12 11 11 11
14 14 15 17 17 18 19 19 20 20 20 20 20 20 20 20 19 19 19 19 19 19 19 18 18 17 17 16 16 15 15 15 14 14 13 13 13 12 12 12 11 11 11 11
14 14 14 16 17 17 18 18 19 20 20 19 20 19 19 19 19 19 19 19 18 18 18 18 17 17 16 16 15 15 15 14 14 13 13 13 12 12 11 11 11 11 10 10
15 15 16 16 17 17 17 18 18 19 19 19 19 19 19 19 18 18 18 18 18 18 17 17 17 16 15 15 15 14 14 14 13 13 12 12 12 12 11 11 10 10 10 10
15 16 16 16 17 17 17 17 18 18 18 18 18 18 18 18 18 18 18 17 17 17 17 16 16 15 15 15 14 14 14 13 13 13 12 12 12 11 11 11 10 10 10 9
15 16 16 16 16 17 17 17 17 17 17 17 17 17 17 17 17 17 17 17 16 16 16 16 15 15 15 14 14 14 13 13 13 12 12 11 11 11 11 10 10 10 10 9
15 15 15 15 16 16 16 16 17 17 17 17 17 17 16 16 16 16 16 16 16 16 15 15 15 15 14 14 14 13 13 13 12 12 11 11 11 11 10 10 10 10 9 9
14 15 15 15 15 15 16 16 16 16 16 16 16 16 16 16 16 16 15 15 15 15 15 15 15 14 14 13 13 13 12 12 12 11 11 11 11 10 10 10 10 9 9 9
14 14 14 14 15 15 15 15 15 15 16 16 16 15 15 15 15 15 15 15 15 15 15 14 14 14 13 13 13 12 12 12 11 11 11 11 10 10 10 10 10 9 9 9
14 14 14 14 14 14 15 15 15 15 15 15 15 15 15 15 15 15 15 15 14 14 14 14 13 13 13 13 12 12 12 11 11 11 11 11 10 10 10 10 9 9 9 9
13 13 13 14 14 14 14 15 15 15 15 15 15 15 14 14 14 14 14 14 14 14 14 13 13 13 13 12 12 12 11 11 11 11 10 10 10 10 10 9 9 9 9 9
12 13 13 13 13 14 14 14 14 14 15 14 14 14 14 14 14 14 14 14 14 13 13 13 13 12 12 12 12 11 11 11 11 10 10 10 10 10 10 9 9 9 9 9
12 12 12 12 13 13 13 13 14 14 14 14 14 14 14 13 13 13 13 13 13 13 13 12 12 12 12 11 11 11 11 11 11 10 10 10 10 10 10 9 9 9 9 9
11 12 12 12 12 13 13 13 13 13 13 13 13 13 13 13 13 13 13 12 12 12 12 12 12 12 11 11 11 11 11 11 10 10 10 10 10 10 10 9 9 9 9 9
11 11 11 11 11 12 12 12 12 12 12 12 12 12 12 12 12 12 12 12 12 12 11 11 11 11 11 11 11 11 11 10 10 10 10 10 10 9 9 9 9 9 9 9
11 11 11 11 11 11 12 12 12 12 12 12 12 12 12 12 12 12 11 11 11 11 11 11 11 11 11 10 10 10 10 10 10 10 10 10 9 9 9 9 9 9 9 9
10 10 10 11 11 11 11 11 11 11 11 11 11 11 11 11 11 11 11 11 11 11 11 10 10 10 10 10 10 10 10 10 10 10 9 9 9 9 9 9 9 9 9 9
10 10 10 10 10 10 10 10 10 10 10 11 10 10 10 11 11 10 10 10 10 10 10 10 10 10 10 10 10 10 10 9 9 9 9 9 9 9 9 9 9 9 9 8
Wind_Speed
5 5 5 5 6 8 7 9 9 9 9 10 9 8 7 8 9 9 8 8 9 8 8 7 6 6 6 6 6 6 7 7 6 6 6 6 6 5 6 6 6 5 6 5
2 2 3 3 5 8 6 6 6 4 8 7 3 4 6 9 10 10 9 9 9 8 8 8 7 7 7 6 6 7 7 7 7 6 6 6 6 6 6 7 6 7 7 6
4 1 3 3 5 6 5 5 7 8 8 3 4 8 10 11 11 11 10 9 10 10 9 8 8 8 7 6 6 7 7 7 7 7 6 6 6 6 7 6 7 7 7 7
4 5 5 8 4 4 5 4 5 5 4 5 6 5 5 7 10 10 10 9 9 9 9 8 7 8 8 8 7 7 7 6 6 7 7 6 6 6 6 5 6 6 7 7
5 5 4 5 2 3 4 3 3 4 2 3 5 5 1 4 7 9 9 8 8 9 8 8 9 9 9 8 7 7 6 6 6 6 7 7 6 6 5 6 6 6 6 7
5 6 7 7 3 1 3 3 3 4 5 6 7 4 4 5 7 8 7 7 8 8 8 9 8 9 10 9 8 7 6 6 6 7 8 7 6 5 5 6 6 6 7 6
5 4 6 5 5 1 5 7 3 3 5 8 6 5 4 8 8 8 8 8 9 9 9 8 8 9 9 9 8 7 7 7 7 7 7 7 6 5 6 6 6 7 7 6
5 4 6 3 1 4 5 3 1 2 4 5 4 4 7 9 9 10 9 8 9 9 8 8 9 9 8 8 7 8 8 8 7 6 6 7 7 6 6 6 7 6 6 6
5 5 4 3 3 3 2 1 1 1 2 5 5 6 7 8 9 9 9 8 8 10 9 7 8 9 9 8 8 9 9 8 7 7 6 6 7 7 5 5 5 4 4 4
0 3 4 3 3 3 1 1 0 1 3 4 5 6 7 7 7 8 7 8 8 9 9 7 7 7 8 9 9 9 9 8 7 7 6 6 5 5 5 4 4 4 4 4
0 3 4 4 4 4 4 4 5 5 3 4 6 6 6 6 7 7 7 7 8 9 9 8 7 7 8 9 9 9 9 8 7 6 7 6 5 4 3 2 3 4 3 4
4 4 2 3 3 3 3 4 3 5 5 4 4 6 6 6 5 6 7 6 7 8 8 8 8 8 8 8 9 10 9 8 6 6 6 6 6 5 8 5 5 5 5 5
4 2 3 2 2 1 1 2 3 4 4 4 4 5 6 6 5 6 6 7 7 8 8 8 8 8 8 8 9 9 9 8 7 6 6 6 6 6 5 5 7 7 6 5
2 1 1 0 1 2 2 3 4 5 5 5 4 5 5 5 6 7 6 6 6 7 7 8 8 8 7 8 8 8 8 9 8 7 6 6 6 5 5 5 4 3 4 4
1 1 3 1 1 2 3 3 5 5 4 4 4 5 5 5 5 5 5 6 7 7 7 8 8 7 7 9 9 9 8 7 6 6 6 6 5 5 5 5 4 3 2 2
0 2 3 2 2 2 2 3 3 3 3 3 3 2 3 3 3 4 5 6 7 7 7 8 8 8 8 9 9 7 7 10 9 7 6 6 5 5 5 5 4 3 3 2
2 1 1 1 1 0 0 1 1 1 1 2 2 3 4 4 4 4 4 4 5 5 6 7 7 8 9 9 9 7 7 8 10 8 7 6 6 5 5 5 4 3 3 3
3 3 3 3 3 2 1 1 1 1 1 2 3 4 5 5 5 4 4 5 4 3 3 5 7 8 9 9 8 7 7 7 7 7 6 6 6 6 5 5 5 4 2 2
2 2 1 1 2 2 2 2 2 2 1 2 4 4 4 4 4 4 5 5 6 5 4 5 9 9 8 9 9 7 8 8 7 6 6 7 6 5 5 5 5 4 4 3
2 2 1 0 0 1 1 2 2 1 1 2 3 4 4 3 4 4 5 4 3 3 5 7 8 7 8 9 10 7 8 8 8 7 6 6 6 6 6 6 5 5 4 4
1 1 1 0 1 1 0 1 1 2 2 3 4 5 4 3 4 4 5 3 2 3 5 8 7 6 7 8 10 7 8 8 8 7 7 6 6 6 6 5 5 5 5 5
1 1 0 0 1 2 2 1 1 2 2 2 3 4 5 4 4 3 3 3 3 6 5 5 5 7 9 10 7 8 8 7 7 6 6 6 6 6 6 6 5 5 5 5
0 1 1 1 1 1 2 1 0 1 2 3 3 4 5 4 4 4 3 2 4 6 5 5 7 11 11 7 7 7 7 7 7 6 6 6 6 6 5 6 5 5 5 5
1 1 1 1 1 1 0 1 1 1 1 2 2 3 4 4 2 2 3 5 7 7 5 7 10 11 10 6 6 6 6 6 6 6 6 5 5 5 5 5 5 4 5 5
0 0 0 1 1 1 1 1 1 2 2 2 2 2 2 3 3 3 4 6 7 7 5 7 10 10 7 6 6 6 5 5 5 5 5 5 5 5 5 5 5 4 4 4
0 0 0 0 1 1 1 2 2 2 2 2 2 2 2 3 5 5 5 6 7 7 6 5 6 6 5 5 6 6 5 5 5 4 5 5 5 4 4 4 5 4 4 4
1 0 1 1 1 1 1 2 2 2 2 3 3 2 3 4 5 5 6 5 5 5 5 5 5 5 5 5 5 5 4 3 3 3 4 4 4 4 4 4 4 3 4 4
Wind_Direction
205 201 174 172 174 171 173 175 177 218 223 242 230 207 183 164 156 154 158 162 158 155 150 145 135 130 129 130 129 128 125 118 113 105 97 89 78 73 72 74 76 73 71 64
179 208 185 178 183 179 184 171 197 212 244 251 225 148 154 164 164 165 169 169 159 152 151 150 146 143 138 137 136 129 127 125 116 107 98 90 84 79 77 72 70 69 65 62
187 209 110 225 208 178 181 187 174 200 231 195 171 184 183 177 173 176 173 168 163 159 160 158 151 146 145 137 128 125 126 127 122 114 104 96 92 85 81 76 73 70 64 64
138 122 190 238 257 188 175 201 207 218 227 194 201 188 168 166 173 173 169 166 164 161 161 153 144 138 135 129 129 125 123 122 121 116 111 104 97 92 87 83 79 75 67 64
127 156 236 286 244 163 170 242 223 203 198 128 119 89 84 185 175 175 172 163 161 160 153 147 146 144 140 136 133 130 132 131 129 126 120 113 108 104 97 91 81 74 69 66
125 142 204 233 268 279 135 257 258 186 169 146 127 142 226 183 163 155 148 147 146 141 133 140 148 144 142 144 144 149 149 140 133 128 124 121 119 111 100 98 93 86 72 62
141 168 242 255 290 75 156 233 273 195 175 161 172 197 171 146 146 143 141 143 141 136 138 144 144 143 147 150 157 151 136 125 120 120 122 122 116 110 110 105 97 88 80 63
139 157 234 299 45 162 215 267 265 187 172 160 154 129 128 138 142 140 139 139 139 138 138 140 144 143 150 154 149 136 129 126 123 123 126 124 119 111 110 113 105 96 88 71
183 203 250 296 257 276 227 226 249 166 165 145 135 135 131 136 142 144 144 143 139 139 138 141 148 151 154 151 142 134 129 128 126 120 114 122 125 124 116 113 114 109 101 90
289 304 311 321 330 337 322 219 321 128 136 138 141 137 133 138 144 142 139 140 138 137 142 147 150 147 148 145 142 136 135 134 133 128 122 114 114 123 128 133 131 127 122 114
24 302 350 359 359 355 12 33 52 58 78 118 128 128 134 141 146 146 142 142 144 149 153 155 150 143 143 146 145 141 139 138 136 132 130 121 107 96 120 125 151 151 154 147
207 224 197 267 312 358 32 29 45 69 62 65 109 128 129 137 144 143 145 144 146 149 153 153 150 147 148 150 149 146 145 146 146 142 138 135 125 95 63 79 90 110 134 139
208 212 204 238 312 7 66 47 47 74 96 95 95 119 126 135 136 135 138 148 158 159 156 152 151 153 155 152 149 150 153 154 152 150 150 148 145 140 124 75 72 80 98 122
203 130 74 327 315 355 54 50 64 67 69 87 99 103 112 125 134 142 151 154 151 148 150 152 155 160 159 152 150 149 150 153 153 155 155 153 153 150 147 144 130 83 59 88
296 186 189 187 41 27 38 61 72 66 66 72 86 103 122 140 152 153 144 138 141 147 155 158 161 165 160 156 155 155 154 155 154 153 152 150 149 147 144 142 138 128 112 89
64 79 90 92 77 33 34 62 86 84 76 83 96 119 124 133 138 132 135 146 156 166 170 168 171 171 164 160 157 156 157 156 155 153 153 152 153 153 152 152 153 155 161 164
146 148 154 182 208 254 254 171 161 146 108 123 156 153 136 137 138 140 145 154 160 166 169 172 173 166 165 165 162 161 158 159 155 155 160 161 162 164 164 165 168 173 190 189
186 201 200 200 213 219 246 225 205 201 189 194 158 148 153 165 173 171 157 144 138 141 161 167 163 161 166 167 163 159 159 160 164 165 165 166 166 168 169 170 173 175 183 174
191 200 205 228 236 203 204 218 222 223 222 164 149 160 167 169 167 163 155 154 163 176 181 163 156 159 163 165 158 155 157 159 161 161 163 162 164 168 171 173 177 182 178 176
182 180 158 265 326 185 211 229 200 193 186 147 147 151 160 173 171 162 156 168 191 184 165 158 157 159 160 160 155 156 158 159 160 160 160 163 168 174 177 178 182 186 186 190
158 163 139 104 340 342 248 237 199 188 170 160 168 171 172 174 169 160 157 172 198 151 149 152 155 156 156 155 153 155 156 158 161 163 164 168 172 177 181 186 191 194 195 197
142 148 291 306 315 315 321 300 219 185 156 155 159 156 156 163 163 155 160 177 167 148 147 153 154 152 153 149 152 154 157 159 160 160 163 167 171 178 184 189 194 198 199 201
171 218 256 255 248 277 323 336 293 177 171 170 167 168 171 174 169 161 166 165 150 146 143 146 145 143 143 144 148 153 156 158 162 165 167 171 178 183 187 192 198 201 201 206
258 246 238 213 173 150 316 332 5 128 137 139 152 160 157 150 141 147 142 144 145 139 134 139 140 140 137 140 141 145 148 153 158 162 165 170 179 184 189 194 201 204 206 209
356 10 85 138 156 184 191 154 107 104 103 101 100 104 130 145 148 146 134 137 138 131 128 140 144 143 140 139 141 144 147 152 156 161 168 175 182 187 193 196 200 202 207 214
313 309 310 213 191 182 168 150 147 140 129 122 105 96 99 106 119 124 127 132 132 130 130 136 145 143 140 140 141 143 144 149 154 165 173 176 180 184 192 195 195 199 205 210
33 62 70 50 41 133 152 149 147 148 148 145 136 118 112 112 114 120 123 125 127 128 130 134 136 135 134 135 134 134 137 145 157 166 168 172 178 187 191 190 190 193 199 206
Height
1499 1496 1497 1497 1501 1507 1509 1516 1524 1518 1515 1503 1498 1498 1500 1503 1506 1509 1512 1514 1517 1520 1524 1528 1531 1533 1535 1538 1539 1540 1542 1544 1545 1546 1546 1547 1547 1547 1547 1547 1547 1547 1547 1547
1498 1495 1495 1497 1497 1500 1502 1506 1508 1507 1507 1495 1495 1497 1500 1502 1505 1507 1510 1513 1516 1519 1523 1527 1530 1533 1535 1538 1539 1540 1542 1544 1545 1546 1547 1547 1548 1548 1548 1548 1548 1548 1547 1547
1508 1498 1497 1506 1497 1497 1498 1499 1501 1505 1499 1494 1495 1495 1496 1499 1503 1505 1508 1512 1515 1519 1523 1526 1529 1532 1535 1538 1539 1541 1542 1544 1546 1547 1547 1548 1548 1549 1548 1548 1548 1548 1548 1548
1511 1506 1517 1503 1489 1489 1492 1493 1493 1492 1491 1491 1491 1492 1495 1498 1501 1504 1507 1511 1515 1519 1522 1526 1529 1532 1535 1538 1540 1541 1542 1544 1545 1546 1548 1548 1549 1549 1549 1549 1549 1549 1549 1548
1515 1515 1508 1496 1488 1489 1492 1493 1489 1490 1489 1490 1491 1494 1497 1498 1500 1503 1506 1510 1514 1518 1522 1525 1529 1532 1535 1537 1539 1541 1543 1544 1545 1546 1548 1548 1549 1549 1549 1549 1549 1549 1549 1549
1512 1513 1515 1497 1486 1485 1489 1495 1487 1486 1487 1489 1491 1498 1496 1496 1499 1503 1507 1510 1514 1518 1521 1524 1528 1531 1534 1536 1538 1540 1542 1544 1545 1546 1547 1548 1549 1550 1550 1550 1550 1550 1550 1550
1508 1508 1503 1490 1485 1485 1500 1496 1485 1484 1485 1487 1488 1490 1491 1494 1497 1502 1506 1510 1513 1517 1520 1524 1528 1530 1532 1535 1537 1540 1542 1543 1544 1546 1547 1548 1549 1550 1550 1551 1551 1551 1551 1552
1507 1507 1505 1486 1485 1489 1489 1484 1483 1483 1484 1485 1487 1489 1490 1493 1497 1501 1505 1509 1512 1515 1519 1523 1527 1530 1532 1533 1536 1539 1540 1542 1544 1545 1546 1547 1549 1550 1551 1551 1552 1552 1552 1552
1498 1498 1489 1486 1486 1485 1484 1483 1482 1483 1484 1486 1487 1489 1491 1494 1497 1501 1504 1507 1511 1515 1518 1522 1525 1528 1531 1533 1535 1537 1539 1542 1543 1545 1546 1547 1548 1550 1551 1552 1552 1553 1553 1553
1493 1489 1487 1485 1484 1484 1483 1483 1483 1483 1484 1486 1488 1489 1492 1494 1497 1500 1504 1507 1511 1514 1517 1521 1524 1527 1530 1533 1535 1536 1538 1540 1542 1544 1545 1547 1548 1550 1551 1552 1553 1553 1554 1554
1492 1489 1486 1485 1485 1485 1484 1483 1484 1484 1486 1487 1489 1490 1493 1495 1498 1501 1504 1507 1511 1514 1517 1520 1523 1526 1529 1531 1533 1535 1537 1539 1541 1543 1545 1546 1547 1549 1551 1552 1553 1554 1554 1555
1491 1488 1488 1488 1487 1486 1486 1485 1485 1486 1487 1488 1490 1491 1493 1496 1499 1502 1504 1507 1510 1513 1516 1519 1522 1524 1527 1529 1532 1533 1535 1538 1540 1542 1544 1545 1546 1548 1550 1551 1553 1554 1555 1555
1486 1486 1487 1487 1488 1488 1487 1487 1487 1487 1488 1489 1491 1493 1494 1497 1499 1502 1505 1508 1510 1513 1515 1518 1521 1523 1525 1527 1530 1532 1534 1537 1539 1541 1543 1544 1546 1548 1549 1551 1552 1553 1554 1555
1485 1486 1486 1487 1488 1488 1488 1488 1488 1488 1489 1490 1492 1493 1496 1498 1500 1502 1505 1508 1510 1513 1515 1517 1519 1522 1524 1526 1529 1531 1533 1536 1538 1539 1542 1544 1545 1547 1549 1550 1551 1552 1554 1555
1485 1485 1486 1487 1488 1488 1489 1489 1489 1489 1490 1491 1493 1494 1496 1499 1501 1502 1504 1507 1510 1512 1514 1516 1518 1520 1523 1525 1527 1530 1532 1534 1536 1538 1540 1543 1545 1546 1548 1549 1550 1551 1553 1554
1484 1485 1486 1487 1488 1488 1488 1489 1489 1489 1490 1491 1493 1495 1496 1498 1501 1502 1504 1506 1508 1510 1512 1514 1516 1519 1521 1523 1525 1528 1530 1532 1535 1537 1539 1542 1543 1545 1547 1548 1549 1551 1552 1553
1483 1484 1485 1486 1487 1488 1488 1488 1489 1489 1490 1491 1492 1494 1496 1498 1500 1501 1503 1505 1507 1509 1511 1512 1514 1517 1519 1521 1524 1526 1528 1531 1533 1536 1538 1540 1542 1544 1546 1547 1549 1550 1552 1553
1482 1483 1484 1484 1485 1486 1487 1487 1488 1488 1489 1490 1491 1493 1495 1497 1499 1500 1502 1504 1506 1507 1509 1511 1513 1515 1518 1520 1522 1525 1527 1529 1532 1534 1537 1539 1541 1543 1545 1546 1548 1549 1551 1552
1479 1480 1482 1483 1484 1484 1485 1485 1486 1487 1488 1488 1489 1491 1493 1495 1497 1499 1500 1502 1503 1504 1506 1508 1511 1513 1516 1518 1521 1523 1525 1528 1531 1533 1535 1538 1540 1542 1544 1546 1547 1549 1550 1552
1477 1478 1479 1480 1481 1482 1483 1483 1484 1485 1486 1487 1488 1489 1491 1493 1495 1497 1498 1500 1501 1503 1505 1506 1509 1511 1514 1516 1519 1521 1524 1526 1529 1532 1534 1536 1538 1541 1543 1544 1546 1548 1549 1550
1474 1476 1476 1477 1478 1479 1480 1481 1482 1483 1483 1485 1487 1488 1490 1492 1494 1495 1496 1497 1500 1501 1503 1505 1507 1509 1512 1515 1517 1520 1522 1525 1528 1530 1533 1535 1537 1540 1541 1543 1545 1546 1548 1549
1472 1473 1474 1475 1476 1477 1478 1479 1480 1480 1482 1483 1484 1486 1488 1489 1491 1492 1494 1496 1498 1499 1501 1503 1506 1508 1510 1513 1516 1518 1521 1524 1526 1529 1531 1534 1536 1538 1540 1542 1543 1545 1546 1547
1470 1471 1472 1473 1474 1474 1475 1476 1477 1478 1479 1481 1482 1484 1485 1487 1488 1490 1491 1494 1496 1498 1500 1502 1504 1507 1509 1512 1515 1517 1520 1523 1525 1528 1530 1533 1535 1537 1539 1540 1541 1543 1544 1545
1469 1469 1470 1471 1472 1472 1473 1474 1475 1476 1478 1479 1480 1482 1483 1485 1486 1488 1490 1492 1495 1497 1499 1501 1504 1506 1509 1511 1514 1517 1519 1522 1524 1527 1529 1531 1533 1535 1537 1538 1539 1541 1542 1543
1467 1468 1468 1469 1469 1470 1472 1473 1474 1475 1476 1478 1479 1480 1482 1484 1485 1487 1489 1491 1494 1496 1499 1501 1503 1506 1508 1510 1513 1516 1518 1521 1523 1526 1528 1529 1531 1533 1535 1536 1537 1539 1540 1541
1466 1466 1467 1467 1468 1469 1470 1471 1472 1473 1475 1476 1478 1479 1481 1483 1485 1487 1489 1491 1493 1496 1498 1500 1503 1505 1508 1510 1513 1515 1518 1520 1522 1524 1526 1528 1530 1531 1533 1534 1536 1537 1538 1539
1465 1465 1465 1466 1467 1468 1469 1470 1471 1472 1474 1475 1477 1479 1481 1483 1484 1487 1489 1491 1493 1496 1498 1501 1503 1505 1508 1510 1512 1515 1517 1519 1521 1523 1525 1526 1528 1530 1531 1533 1534 1535 1536 1536